SB KEPS @ AMSAT $ORB12012.N 2Line Orbital Elements 12012.AMSAT
HR AMSAT ORBITAL ELEMENTS FOR AMATEUR SATELLITES IN NASA FORMAT FROM WA5QGD FORT WORTH,TX January 12, 2012 Send SUBSCRIBE KEPS/UNSUBSCRIBE KEPS to majordomo@amsat.org only BID: ORB12012.N
DECODE 2-LINE ELSETS WITH THE FOLLOWING KEY: 1 AAAAAU 00 0 0 BBBBB.BBBBBBBB .CCCCCCCC 00000-0 00000-0 0 DDDZ 2 AAAAA EEE.EEEE FFF.FFFF GGGGGGG HHH.HHHH III.IIII JJ.JJJJJJJJKKKKKZ KEY: A-CATALOGNUM B-EPOCHTIME C-DECAY D-ELSETNUM E-INCLINATION F-RAAN G-ECCENTRICITY H-ARGPERIGEE I-MNANOM J-MNMOTION K-ORBITNUM Z-CHECKSUM
TO ALL RADIO AMATEURS BT
AO-07 1 07530U 74089B 12011.68883717 -.00000027 00000-0 10000-3 0 02803 2 07530 101.3970 015.0216 0011844 230.7597 129.2424 12.53586964700318 FO-29 1 24278U 96046B 12012.92920602 -.00000065 00000-0 -32983-4 0 7501 2 24278 098.5749 134.1213 0351286 073.9280 290.0237 13.52975109760824 SO-33 1 25509U 98061B 12012.74892320 .00000355 00000-0 56393-4 0 1429 2 25509 031.4345 138.8976 0353425 274.5501 081.4866 14.28649941690265 RS-22 1 27939U 03042A 12012.68223029 .00000447 00000-0 93963-4 0 9840 2 27939 097.8226 221.4126 0014235 044.7950 315.4397 14.63864553442982 VO-52 1 28650U 05017B 12011.88890987 .00001319 00000-0 16918-3 0 09976 2 28650 097.6167 050.4244 0026115 195.3594 164.6801 14.82608848361666 SO-67 1 35870U 09049F 12012.43576572 .00004105 00000-0 17991-3 0 5817 2 35870 097.2545 053.6653 0003062 037.1181 076.9794 15.22533270128752 HO-68 1 36122U 09072B 12012.79206796 -.00000044 00000-0 00000 0 0 982 2 36122 100.3871 075.1564 0007772 106.2309 253.9657 13.16292364 99819 UO-11 1 14781U 84021B 12011.96942681 .00000356 00000-0 53695-4 0 07596 2 14781 097.9786 072.7112 0009089 174.9878 185.1427 14.80272496496672 AO-16 1 20439U 90005D 12011.87773005 .00000129 00000-0 63971-4 0 03811 2 20439 098.4118 319.8121 0010034 266.3719 093.6315 14.32006508147488 LO-19 1 20442U 90005G 12011.92476928 .00000133 00000-0 64830-4 0 03118 2 20442 098.3767 323.4273 0011008 256.7438 103.2520 14.32227972147670 AO-27 1 22825U 93061C 12011.96200207 .00000143 00000-0 73240-4 0 00077 2 22825 098.5571 317.3717 0008952 026.5595 333.6043 14.29420394954010 IO-26 1 22826U 93061D 12011.85278423 .00000130 00000-0 67433-4 0 07688 2 22826 098.5518 317.6775 0009545 020.9580 339.1989 14.29689917954120 GO-32 1 25397U 98043D 12011.92312064 .00000150 00000-0 84257-4 0 06793 2 25397 098.3459 358.5226 0001933 048.6499 311.4858 14.23252427701654 NO-44 1 26931U 01043C 12011.78929416 .00000343 00000-0 16556-3 0 09446 2 26931 067.0504 165.9863 0005351 278.9060 081.1442 14.29749634536743 SO-50 1 27607U 02058C 12011.51509788 .00000862 00000-0 15075-3 0 6607 2 27607 064.5593 054.4586 0084765 279.0467 080.1016 14.72155553486757 CO-55 1 27844U 03031E 12011.61819261 .00000287 00000-0 15276-3 0 2850 2 27844 098.7046 022.2873 0009495 321.6650 038.3855 14.20944356442511 CO-57 1 27848U 03031J 12011.66530627 .00000230 00000-0 12698-3 0 02342 2 27848 098.7135 021.6009 0009303 327.1736 032.8843 14.20706530442462 AO-51 1 28375U 04025K 12011.86628282 .00000198 00000-0 71782-4 0 1666 2 28375 098.1246 344.6561 0083411 156.9138 203.5821 14.40882338396118 CP3 1 31129U 07012N 12012.48136680 .00000696 00000-0 16916-3 0 660 2 31129 097.8864 029.4810 0100284 250.2489 108.7839 14.52847144251227 CO-65 1 32785U 08021C 12012.68744711 .00001476 00000-0 18960-3 0 2011 2 32785 097.8219 077.3186 0014123 209.9445 150.0946 14.82609605200579 PRISM 1 33493U 09002B 12012.70709943 .00002917 00000-0 36428-3 0 3245 2 33493 098.1476 149.8690 0020255 084.8019 275.5507 14.83037572160558 SOHLA-1 1 33496U 09002E 12011.85737865 .00000334 00000-0 64172-4 0 06328 2 33496 098.0938 124.7887 0006535 172.3133 187.8172 14.69838417159134 TISAT-1 1 36799U 10035E 12012.66648805 .00001794 00000-0 23599-3 0 5978 2 36799 098.0798 087.8196 0014426 323.4847 036.5372 14.81408843 81314 STUDSAT 1 36801U 10035G 12011.91963512 .00004719 00000-0 58901-3 0 03618 2 36801 098.0849 087.2156 0012633 312.3938 047.6191 14.82823225081207 OOREOS 1 37224U 10062C 11330.25217324 .00002151 00000-0 30897-3 0 00339 2 37224 071.9741 041.3371 0020052 337.4654 022.5620 14.77385090005948 FO-69 1 37227U 0 12011.43277023 .00000546 00000-0 85388-4 0 00749 2 37227 071.9718 300.0155 0018854 254.6661 105.2417 14.76890019012802 FO-70 1 37380U 0 12011.34442304 .00000554 00000-0 86945-4 0 00777 2 37380 071.9757 300.5718 0019422 251.9794 107.9251 14.76648516012688 NOAA-10 1 16969U 86073A 12012.64800777 .00000018 00000-0 25206-4 0 7772 2 16969 098.6000 044.3587 0011829 336.8665 023.1977 14.27519951317537 NOAA-11 1 19531U 88089A 12012.30325286 .00000052 00000-0 49375-4 0 7781 2 19531 098.7423 100.7191 0010792 315.4378 044.5935 14.14948802202323 NOAA-12 1 21263U 91032A 12012.66126041 .00000088 00000-0 56056-4 0 2660 2 21263 098.7395 034.9744 0012985 298.0035 061.9830 14.25471689 74252 MET-3/5 1 21655U 91056A 12011.89504466 .00000051 00000-0 10000-3 0 03104 2 21655 082.5580 263.3082 0013731 000.7479 359.3712 13.17035125981191 MET-2/21 1 22782U 93055A 12012.52892510 .00000087 00000-0 65627-4 0 3080 2 22782 082.5484 156.7994 0021387 229.8176 130.1106 13.83673741927509 OKEAN-4 1 23317U 94066A 12011.95817534 .00001129 00000-0 13382-3 0 08002 2 23317 082.5389 178.1448 0022306 146.9491 213.3124 14.83520145931498 NOAA-14 1 23455U 94089A 12012.65297605 .00000044 00000-0 46217-4 0 7490 2 23455 098.8375 098.0696 0010110 047.5571 312.6457 14.13869828878675 NOAA-15 1 25338U 98030A 12012.62253023 .00000233 00000-0 11816-3 0 988 2 25338 098.6762 001.1301 0010280 199.6031 160.4739 14.25018809710553 RESURS 1 25394U 98043A 12011.96890869 .00000056 00000-0 42086-4 0 09914 2 25394 098.3080 008.5824 0001737 014.1804 345.9425 14.24268785702026 FENGYUN1 1 25730U 99025A 12011.89297732 .00000717 00000-0 43713-3 0 5121 2 25730 098.8335 333.7460 0021470 090.9708 269.3918 14.09151027652458 OKEAN-0 1 25860U 99039A 12011.92047268 .00000536 00000-0 88989-4 0 05338 2 25860 097.9129 337.9981 0001758 054.6544 305.4829 14.74050558671407 NOAA-16 1 26536U 00055A 12012.65663094 .00000436 00000-0 25985-3 0 5820 2 26536 099.1167 052.2062 0011012 161.0847 199.0744 14.12696856582935 NOAA-17 1 27453U 02032A 12012.51767193 .00000067 00000-0 46933-4 0 5609 2 27453 098.3547 047.3414 0010788 255.0015 104.9977 14.24381492496457 NOAA-18 1 28654U 05018A 12012.49278144 .00000374 00000-0 23051-3 0 364 2 28654 099.0262 329.4559 0013736 234.5303 125.4563 14.11590997342452 NOAA-19 1 33591U 09005A 12012.53653666 .00000364 00000-0 22578-3 0 2253 2 33591 098.8506 314.3937 0014875 103.3054 256.9758 14.11278664150918 HUBBLE 1 20580U 90037B 12010.70633230 .00000170 00000-0 00000 0 0 9225 2 20580 028.4699 100.3063 0003433 159.0818 333.3663 15.02064828990879 ISS 1 25544U 98067A 12012.91086523 .00013395 00000-0 17206-3 0 8078 2 25544 051.6417 186.0353 0023538 274.8814 249.9623 15.59140841753645 CO-58 1 28895U 05043F 12011.58143083 .00000704 00000-0 15429-3 0 00717 2 28895 097.9376 244.5815 0016774 287.5849 072.3516 14.60439356330654 FALCON 1 30776U 07006E 12012.83372754 .00003545 00000-0 23861-3 0 2589 2 30776 035.4316 150.9701 0001910 068.4874 291.6046 15.06378620266659 MAST 1 31126U 07012K 12011.98533321 .00000636 00000-0 15280-3 0 03686 2 31126 097.8805 032.2526 0093078 240.4625 118.7271 14.54004296251428 CAPE1 1 31130U 07012P 12011.61097409 .00000722 00000-0 17534-3 0 3672 2 31130 097.8861 028.3998 0100883 253.6924 105.3123 14.52729073250898 COMPASS 1 32787U 08021E 12011.79716713 .00001917 00000-0 23975-3 0 01959 2 32787 097.8234 076.5247 0014775 212.2472 147.7825 14.83384832200478 AAUSAT2 1 32788U 08021F 12011.73068127 .00001997 00000-0 24793-3 0 01860 2 32788 097.8239 076.7606 0014324 212.0917 147.9431 14.83651674200484 DO-64 1 32789U 08021G 12011.77832975 .00003206 00000-0 38405-3 0 02024 2 32789 097.8334 078.2952 0014536 210.5223 149.5123 14.84721083200513 CO-66 1 32791U 08021J 12011.73084363 .00001585 00000-0 20161-3 0 01907 2 32791 097.8242 076.3111 0015154 211.8104 148.2197 14.82911047200403 RS-30 1 32953U 08025A 12012.74007024 .00000010 00000-0 00000 0 0 4284 2 32953 082.5015 032.4268 0017711 291.2318 068.6878 12.43019797165124 TACSAT-3 1 35001U 09028A 12012.87985260 .00075619 00000-0 64995-3 0 8273 2 35001 040.4510 326.9842 0007052 263.3841 096.6151 15.68286607149742 PHARMSAT 1 35002U 09028B 12011.96587443 .00044455 00000-0 49274-3 0 07652 2 35002 040.4684 334.5901 0009507 331.0137 029.0142 15.62065784149581 HAWKSAT1 1 35003U 09028C 11276.79285837 .02274821 58283-2 19360-2 0 8114 2 35003 040.4398 174.3672 0011414 274.3918 085.3844 16.13812532134570 CP6 1 35004U 09028D 11247.64656856 .16152067 73217-5 10011-2 0 7842 2 35004 040.4403 342.9642 0002956 038.0069 322.2231 16.41039951130139 METEOR-M 1 35865U 09049A 12012.78652884 -.00000010 00000-0 15254-4 0 593 2 35865 098.6788 069.8807 0002859 131.5564 228.5849 14.21853399120378 RS-38 1 35869U 09049E 12012.26709719 .00000040 00000-0 37764-4 0 558 2 35869 098.6757 069.3883 0004965 138.2123 221.9434 14.22049251120318 ARISSAT1 1 37772U 98067CK 12004.04884568 .13494171 12416-4 77857-3 0 4794 2 37772 051.6129 213.1240 0007478 255.9283 104.1611 16.41716225 24077 JUGNU 1 37839U 11058B 12011.86669271 .00000619 00000-0 19019-3 0 669 2 37839 019.9626 231.2779 0018680 290.9170 068.9196 14.12016756 12989 SRMSAT 1 37841U 11058D 12012.62750331 .00000264 00000-0 00000 0 0 678 2 37841 019.9716 228.4835 0012518 271.3421 088.5586 14.10107447 13066 RAX-2 1 37853U 11061D 12011.92979228 .00004281 00000-0 35351-3 0 00769 2 37853 101.7086 340.7456 0252085 078.6825 284.2579 14.78414789011156 AUBIESAT 1 37854U 11061E 12012.52805919 .00004412 00000-0 35858-3 0 704 2 37854 101.7109 341.6782 0253938 076.7292 286.2081 14.78658672 11229 HRBE 1 37855U 11061F 12012.86844270 .00004305 00000-0 35046-3 0 693 2 37855 101.7122 342.1677 0254121 075.5333 287.3914 14.78602770 11272 /EX